Regional Weather Roundup
Issued by NWS

Home | Current Version | Previous Version | Graphics & Text | Print | Product List | Glossary On
Versions: 1 2 3 4 5 6 7 8 9 10 11 12 13 14 15 16 17 18 19 20 21 22 23 24 25 26 27 28 29 30 31 32 33 34 35 36 37 38 39 40 41 42 43 44 45 46 47 48 49 50
000
ASUS43 KDTX 191410
RWRMI
MICHIGAN HOURLY REGIONAL WEATHER ROUNDUP
NATIONAL WEATHER SERVICE DETROIT/PONTIAC MI
1000 AM EDT SAT APR 19 2014

NOTE: "FAIR" INDICATES FEW OR NO CLOUDS BELOW 12,000 FEET WITH NO
SIGNIFICANT WEATHER AND/OR OBSTRUCTION TO VISIBILITY.

MIZ047>049-052>055-059>063-066>070-074>076-081>083-191500-
SOUTHEAST LOWER MICHIGAN

CITY           SKY/WX    TMP DP  RH WIND       PRES   REMARKS
ADRIAN         SUNNY     43  29  57 E10       30.45R
ALMA           SUNNY     39  32  76 NE10      30.48S
ANN ARBOR      SUNNY     43  29  57 E12       30.45R
BAD AXE        SUNNY     39  32  75 E12       30.49S
DETROIT CITY   SUNNY     44  31  60 NE9       30.47S
DETROIT        MOSUNNY   43  30  60 NE7       30.47R
FLINT          SUNNY     43  31  62 E9        30.47S
GROSSE ILE     SUNNY     43  34  70 NE12      30.45R
HILLSDALE      SUNNY     43  30  60 NE9       30.42S
HOWELL         SUNNY     40  30  65 E8        30.45S

CITY           SKY/WX    TMP DP  RH WIND       PRES   REMARKS
JACKSON        SUNNY     42  28  57 E6        30.44S
LAMBERTVILLE   SUNNY     45  32  61 E8        30.45S
LANSING        SUNNY     41  30  65 E12       30.46F
LAPEER         NOT AVBL
MASON          SUNNY     40  32  72 E8        30.46R
MONROE         SUNNY     45  32  61 NE12      30.44R
MT. CLEMENS    SUNNY     42  32  69 E7        30.46R
PONTIAC        SUNNY     41  29  62 E10       30.45R
PORT HOPE        N/A     37  32  82 NE12      30.49R
PORT HURON     SUNNY     39  34  81 NE9       30.48R
TRI CITIES     PTSUNNY   41  33  73 NE10      30.50R
YPSILANTI      SUNNY     46  29  51 NE12      30.46R
$$
MIZ043>046-050>051-056>058-064>065-071>073-077>080-191500-
SOUTHWEST LOWER MICHIGAN

CITY           SKY/WX    TMP DP  RH WIND       PRES   REMARKS
BATTLE CREEK   SUNNY     42  29  59 E9        30.43S
BENTON HARBOR  SUNNY     44  34  67 E13       30.40S
BIG RAPIDS     SUNNY     39  30  71 SE12      30.46S
COLDWATER      SUNNY     42  30  62 E10       30.43S
HOLLAND        SUNNY     43  31  62 E15       30.44S
GRAND RAPIDS   MOSUNNY   42  30  62 E13       30.45S
KALAMAZOO      SUNNY     43  29  57 E9        30.43S
MARSHALL       SUNNY     41  29  63 E8        30.43S
MUSKEGON       MOSUNNY   42  27  55 E13       30.44S
$$
MIZ016>042-191500-
NORTHERN LOWER MICHIGAN

CITY           SKY/WX    TMP DP  RH WIND       PRES   REMARKS
ALPENA         SUNNY     38  27  64 E10       30.52R
BEAVER ISLAND  MOSUNNY   34  32  94 E8        30.49S
BELLAIRE       SUNNY     40  29  65 SE6       30.47F
CADILLAC       SUNNY     38  30  73 E15       30.43F
CHARLEVOIX     MOSUNNY   37  31  78 E12       30.50F
FRANKFORT      MOSUNNY   39  30  69 SE10      30.45F
GAYLORD        SUNNY     36  27  69 SE9       30.46F
GRAYLING       SUNNY     36  30  79 E7        30.48F
HARBOR SPRINGS MOSUNNY   36  31  82 E8        30.49F
HOUGHTON LAKE  SUNNY     38  29  70 E8        30.48S
MANISTEE       MOSUNNY   37  27  65 SE9       30.45F
OSCODA         SUNNY     40  31  68 E12       30.50F
PELLSTON       MOSUNNY   33  28  81 SE8       30.51S
TRAVERSE CITY  MOSUNNY   35  30  82 CALM      30.47F
$$
MIZ007>008-015-191500-
EASTERN UPPER MICHIGAN

CITY           SKY/WX    TMP DP  RH WIND       PRES   REMARKS
KINROSS        MOSUNNY   36  34  93 E12       30.51S
MACKINAC ISLAN MOSUNNY   32  32  99 E6        30.50F
NEWBERRY       SUNNY     32  29  89 SE12G17   30.47F
S. S. MARIE    MOSUNNY   32  26  78 SE7       30.51R
$$
MIZ004>006-011>014-085-191500-
CENTRAL UPPER MICHIGAN

CITY           SKY/WX    TMP DP  RH WIND       PRES   REMARKS
MANISTIQUE     PTSUNNY   33  30  89 E9G17     30.47F
ESCANABA       MOSUNNY   34  28  80 SE12      30.44F
MENOMINEE      SUNNY     34  28  80 SE10      30.43F
SAWYER-GWINN   SUNNY     32  28  86 S14       30.38F
$$
MIZ001>003-009>011-084-191500-
WESTERN UPPER MICHIGAN

CITY           SKY/WX    TMP DP  RH WIND       PRES   REMARKS
IRON MOUNTAIN  MOSUNNY   34  24  67 SE13      30.36F
HOUGHTON       CLOUDY    32  25  75 E13       30.32F
COPPER HARBOR    N/A     33  28  81 S9        30.37S
IRONWOOD       PTSUNNY   37  21  52 SE13G24   30.20S
$$

ABBREVIATIONS USED IN REMARKS
   TC - TEMPERATURE IN CELSIUS
  WCI - WIND CHILL INDEX
   HX - HEAT INDEX
  VSB - VISIBILITY




USA.gov is the U.S. government's official web portal to all federal, state and local government web resources and services.